FW8306 Weather Reports


time (UTC)temp
F
wind
direction
speed
knots
gust
knots
rain 1hr
in
rain 24hr
in
rain mn
in
humidity
%
barometer
mb
20260831001602 57 0.0 0.0 0.00 0.29 0.00 94 1009.6
20260831000112 57 0.0 0.0 0.00 0.29 0.00 94 1009.5
20260830234602 57 0.0 0.0 0.00 0.29 0.00 93 1009.5
20260830233057 57 0.0 0.0 0.00 0.29 0.00 93 1009.5
20260830231558 57 0.0 0.0 0.00 0.29 0.00 93 1009.5
20260830230057 58 0.0 0.0 0.00 0.29 0.00 93 1009.5
20260830224600 58 0.0 0.0 0.00 0.29 0.00 93 1009.5
20260830223059 59 0.0 0.0 0.00 0.29 0.00 93 1009.4
20260830221557 59 0.0 0.0 0.00 0.29 0.00 92 1009.4
20260830214601 59 0.0 0.0 0.00 0.29 0.29 92 1009.3
20260830213057 60 0.0 0.0 0.00 0.29 0.29 92 1009.2
20260830211610 60 0.0 0.0 0.00 0.29 0.29 92 1009.2
20260830204559 60 0.0 0.0 0.00 0.29 0.29 93 1009.0
20260830203100 60 0.0 0.0 0.00 0.29 0.29 93 1008.9
20260830201605 61 0.0 0.0 0.00 0.29 0.29 93 1009.0
20260830200058 61 0.0 0.0 0.00 0.29 0.29 94 1008.8
20260830194606 61 0.0 0.0 0.00 0.29 0.29 93 1008.6
20260830193101 62 0.0 0.0 0.00 0.29 0.29 93 1008.4
20260830191603 62 0.0 0.0 0.00 0.29 0.29 93 1008.2
20260830190104 62 0.0 0.0 0.00 0.29 0.29 93 1007.9
20260830184612 62 0.0 0.0 0.00 0.29 0.29 93 1007.7
20260830183103 62 0.0 0.0 0.00 0.29 0.29 92 1007.5
20260830181559 62 0.0 0.0 0.00 0.29 0.29 92 1007.2
20260830180117 63 0.0 0.0 0.00 0.29 0.29 92 1006.9
20260830174611 63 0.0 0.0 0.00 0.29 0.29 92 1006.8
20260830173129 64 0.0 0.0 0.00 0.29 0.29 93 1006.5
20260830171618 64 0.0 0.0 0.00 0.29 0.29 93 1006.1
20260830170109 65 0.0 0.0 0.00 0.29 0.29 93 1005.7
20260830164556 65 0.0 0.0 0.00 0.29 0.29 93 1005.4
20260830163102 66 0.0 0.0 0.11 0.29 0.29 93 1004.8
20260830161607 66 0.0 0.0 0.11 0.29 0.29 93 1004.6
20260830160109 67 0.0 0.0 0.11 0.29 0.29 94 1004.3
20260830154602 67 0.0 0.0 0.10 0.28 0.28 93 1004.1
20260830153101 68 0.0 0.0 0.00 0.18 0.18 91 1003.7
20260830151609 68 0.0 0.0 0.00 0.18 0.18 92 1003.6
20260830150106 67 0.0 0.0 0.00 0.18 0.18 94 1003.6
20260830144608 66 0.0 0.0 0.00 0.18 0.18 93 1003.6
20260830143107 66 0.0 0.0 0.00 0.17 0.17 92 1003.5
20260830141602 66 0.0 0.0 0.00 0.17 0.17 92 1003.5
20260830140108 66 0.0 0.0 0.00 0.17 0.17 93 1003.5
20260830134602 66 0.0 0.0 0.00 0.17 0.17 93 1003.4
20260830133116 66 0.0 0.0 0.00 0.17 0.17 95 1003.4
20260830131604 65 0.0 0.0 0.00 0.17 0.17 94 1003.3
20260830130104 65 0.0 0.0 0.00 0.16 0.16 95 1003.4
20260830124559 65 0.0 0.0 0.00 0.16 0.16 95 1003.2
20260830123104 65 0.0 0.0 0.00 0.16 0.16 95 1003.2
20260830121601 65 0.0 0.0 0.00 0.16 0.16 95 1003.2
20260830114604 65 0.0 0.0 0.02 0.17 0.16 95 1003.3
20260830113100 64 0.0 0.0 0.06 0.17 0.16 96 1003.3
20260830111600 64 0.0 0.0 0.06 0.17 0.16 96 1003.3
20260830104601 64 0.0 0.0 0.07 0.14 0.14 95 1003.2
20260830103059 64 0.0 0.0 0.03 0.11 0.10 94 1003.2
20260830101601 65 0.0 0.0 0.03 0.11 0.10 92 1003.4
20260830100059 66 0.0 0.0 0.00 0.08 0.07 90 1003.5
20260830094602 67 0.0 0.0 0.00 0.07 0.07 90 1003.3
20260830093055 66 0.0 0.0 0.00 0.07 0.07 91 1003.6
20260830091559 65 0.0 0.0 0.00 0.07 0.07 92 1003.6
20260830090103 64 0.0 0.0 0.00 0.07 0.07 94 1003.6
20260830084559 64 0.0 0.0 0.00 0.07 0.07 94 1003.7
20260830083058 63 0.0 0.0 0.00 0.07 0.07 95 1003.7
20260830081558 63 0.0 0.0 0.00 0.07 0.07 95 1003.7
20260830074604 63 0.0 0.0 0.00 0.07 0.07 95 1004.0
20260830073105 63 0.0 0.0 0.00 0.07 0.07 95 1003.9
20260830071603 62 0.0 0.0 0.00 0.07 0.07 95 1004.2
20260830070106 63 0.0 0.0 0.00 0.07 0.07 95 1004.3
20260830064612 62 0.0 0.0 0.00 0.07 0.07 95 1004.1
20260830063101 62 0.0 0.0 0.00 0.07 0.07 95 1004.3
20260830061602 62 0.0 0.0 0.03 0.07 0.07 95 1004.3
20260830060107 62 0.0 0.0 0.03 0.07 0.07 95 1004.4
20260830054554 62 0.0 0.0 0.03 0.07 0.07 95 1004.5
20260830053059 62 0.0 0.0 0.05 0.07 0.06 95 1004.7
20260830051557 61 0.0 0.0 0.02 0.03 0.03 95 1004.6
20260830050100 61 0.0 0.0 0.02 0.03 0.03 94 1004.8
20260830044605 62 0.0 0.0 0.02 0.03 0.03 94 1005.0
20260830043056 61 0.0 0.0 0.00 0.01 0.00 95 1005.1
20260830041603 61 0.0 0.0 0.00 0.01 0.00 95 1005.2
20260830040100 61 0.0 0.0 0.00 0.01 0.00 95 1005.4
20260830034558 61 0.0 0.0 0.00 0.01 0.00 95 1005.4
20260830033103 61 0.0 0.0 0.00 0.01 0.00 95 1005.6
20260830031604 61 0.0 0.0 0.00 0.01 0.00 95 1005.8
20260830030100 61 0.0 0.0 0.00 0.01 0.00 94 1005.8
20260830024556 61 0.0 0.0 0.00 0.01 0.00 94 1006.0
20260830023057 61 0.0 0.0 0.00 0.01 0.00 94 1006.2
20260830021559 61 0.0 0.0 0.00 0.01 0.00 94 1006.2
20260830020111 61 0.0 0.0 0.00 0.01 0.00 94 1006.4
20260830014601 61 0.0 0.0 0.00 0.01 0.00 94 1006.6
20260830013101 61 0.0 0.0 0.00 0.01 0.00 93 1006.9
20260830011558 62 0.0 0.0 0.00 0.00 0.00 94 1007.1
20260830010105 61 0.0 0.0 0.00 0.00 0.00 94 1007.3
20260830004613 61 0.0 0.0 0.00 0.00 0.00 94 1007.3
20260830003059 61 0.0 0.0 0.00 0.00 0.00 94 1007.4